GW1213 Weather Reports


time (UTC)temp
C
wind
direction
speed
KPH
gust
KPH
rain 1hr
cm
rain 24hr
cm
rain mn
cm
humidity
%
barometer
mb
20260906222538 26 74 4.8 9.7 0.00 0.03 0.03 55 1013.5
20260906222038 26 0 1.6 6.4 0.00 0.03 0.03 57 1013.6
20260906221607 26 57 0.0 3.2 0.00 0.03 0.03 57 1013.5
20260906221038 26 0 0.0 4.8 0.00 0.03 0.03 55 1013.5
20260906220538 26 0 0.0 4.8 0.00 0.03 0.03 54 1013.6
20260906220107 26 74 1.6 4.8 0.00 0.03 0.03 54 1013.6
20260906215535 26 38 0.0 6.4 0.00 0.03 0.03 57 1013.5
20260906215038 27 0 0.0 11.3 0.00 0.03 0.03 55 1013.6
20260906214608 27 0 4.8 11.3 0.00 0.03 0.03 53 1013.5
20260906214038 27 34 3.2 11.3 0.00 0.03 0.03 53 1013.5
20260906213539 27 57 0.0 1.6 0.00 0.03 0.03 54 1013.6
20260906213100 27 0 0.0 4.8 0.00 0.03 0.03 53 1013.6
20260906212541 27 32 0.0 6.4 0.00 0.03 0.03 52 1013.5
20260906212039 27 71 1.6 6.4 0.00 0.03 0.03 51 1013.6
20260906211558 27 25 1.6 6.4 0.00 0.03 0.03 51 1013.6
20260906211040 27 0 1.6 6.4 0.00 0.03 0.03 50 1013.7
20260906210538 27 0 1.6 8.0 0.00 0.03 0.03 51 1013.7
20260906210113 27 45 3.2 8.0 0.00 0.03 0.03 51 1013.8
20260906205538 27 74 0.0 8.0 0.00 0.03 0.03 51 1013.8
20260906205037 27 0 1.6 9.7 0.00 0.03 0.03 50 1013.7
20260906204601 27 53 3.2 9.7 0.00 0.03 0.03 51 1013.6
20260906204039 27 0 1.6 9.7 0.00 0.03 0.03 51 1013.7
20260906203539 27 57 0.0 4.8 0.00 0.03 0.03 54 1013.7
20260906203059 27 0 0.0 8.0 0.00 0.03 0.03 56 1013.8
20260906202538 27 0 1.6 8.0 0.00 0.03 0.03 54 1013.7
20260906202039 27 0 1.6 6.4 0.00 0.03 0.03 55 1013.7
20260906201637 27 0 1.6 12.9 0.00 0.03 0.03 54 1013.7
20260906201037 27 10 3.2 12.9 0.00 0.03 0.03 54 1013.6
20260906200538 27 0 0.0 11.3 0.00 0.03 0.03 55 1013.6
20260906200057 27 78 4.8 11.3 0.00 0.03 0.03 55 1013.6
20260906195538 26 78 0.0 4.8 0.00 0.03 0.03 58 1013.5
20260906195038 26 0 0.0 8.0 0.00 0.03 0.03 59 1013.5
20260906194609 26 0 0.0 8.0 0.00 0.03 0.03 57 1013.6
20260906194036 27 90 3.2 11.3 0.00 0.03 0.03 56 1013.6
20260906193538 27 306 3.2 11.3 0.00 0.03 0.03 54 1013.6
20260906193102 27 345 3.2 9.7 0.00 0.03 0.03 56 1013.7
20260906192538 27 0 0.0 4.8 0.00 0.03 0.03 57 1013.6
20260906192037 27 0 0.0 4.8 0.00 0.03 0.03 58 1013.6
20260906191611 27 340 0.0 8.0 0.00 0.03 0.03 57 1013.6
20260906191039 27 60 1.6 8.0 0.00 0.03 0.03 58 1013.6
20260906190537 27 32 1.6 8.0 0.00 0.03 0.03 59 1013.6
20260906190056 27 81 1.6 11.3 0.00 0.03 0.03 58 1013.6
20260906185535 27 326 4.8 11.3 0.00 0.03 0.03 57 1013.7
20260906185038 27 44 3.2 9.7 0.00 0.03 0.03 59 1013.8
20260906184605 27 342 0.0 3.2 0.00 0.03 0.03 60 1013.9
20260906184037 27 0 0.0 3.2 0.00 0.03 0.03 59 1013.8
20260906183539 26 348 0.0 4.8 0.00 0.03 0.03 58 1013.9
20260906183105 26 352 1.6 11.3 0.00 0.03 0.03 61 1013.9
20260906182541 26 35 1.6 16.1 0.00 0.03 0.03 60 1013.8
20260906182042 26 37 4.8 16.1 0.00 0.03 0.03 57 1013.8
20260906181633 26 44 1.6 8.0 0.00 0.03 0.03 58 1013.9
20260906181035 27 342 3.2 8.0 0.00 0.03 0.03 58 1013.9
20260906180536 27 333 1.6 6.4 0.00 0.03 0.03 57 1014.0
20260906180107 27 0 0.0 6.4 0.00 0.03 0.03 59 1013.9
20260906175538 27 9 1.6 6.4 0.00 0.08 0.03 57 1013.9
20260906175037 27 0 3.2 6.4 0.00 0.08 0.03 58 1014.0
20260906174611 26 352 1.6 12.9 0.00 0.08 0.03 59 1014.0
20260906174038 27 327 1.6 12.9 0.00 0.08 0.03 59 1014.0
20260906173536 27 16 3.2 12.9 0.00 0.08 0.03 59 1013.9
20260906173105 26 344 0.0 14.5 0.00 0.08 0.03 61 1013.9
20260906172536 26 76 4.8 14.5 0.00 0.08 0.03 57 1014.0
20260906172037 27 48 3.2 9.7 0.00 0.08 0.03 60 1014.1
20260906171559 27 28 1.6 6.4 0.00 0.08 0.03 57 1014.1
20260906171035 27 329 0.0 6.4 0.00 0.08 0.03 60 1014.1
20260906170537 27 0 0.0 6.4 0.00 0.08 0.03 57 1014.2
20260906170055 27 11 3.2 6.4 0.00 0.08 0.03 56 1014.3
20260906165538 27 325 3.2 6.4 0.00 0.48 0.03 57 1014.2
20260906165036 27 347 1.6 4.8 0.00 0.48 0.03 58 1014.2
20260906164602 27 312 1.6 4.8 0.00 0.48 0.03 59 1014.3
20260906164038 27 0 1.6 6.4 0.00 0.48 0.03 59 1014.3
20260906163534 27 5 1.6 6.4 0.00 0.48 0.03 60 1014.3
20260906163105 27 0 0.0 11.3 0.00 0.48 0.03 60 1014.3
20260906162534 27 0 0.0 11.3 0.00 0.48 0.03 59 1014.4
20260906162115 27 79 0.0 6.4 0.00 0.48 0.03 60 1014.4
20260906161606 27 0 0.0 0.0 0.00 0.48 0.03 63 1014.5
20260906161036 26 0 0.0 3.2 0.00 0.48 0.03 62 1014.5
20260906160539 26 0 0.0 8.0 0.00 0.48 0.03 64 1014.5
20260906160055 26 302 3.2 8.0 0.00 0.48 0.03 63 1014.6
20260906155539 26 344 0.0 8.0 0.00 0.48 0.03 63 1014.6
20260906155037 26 0 1.6 9.7 0.00 0.48 0.03 65 1014.6
20260906154602 26 55 3.2 9.7 0.00 0.48 0.03 64 1014.7
20260906154039 26 71 3.2 8.0 0.00 0.48 0.03 61 1014.7
20260906153537 26 319 0.0 4.8 0.00 0.48 0.03 66 1014.8
20260906153102 26 318 0.0 4.8 0.00 0.48 0.03 62 1014.7
20260906152536 25 340 1.6 4.8 0.00 0.48 0.03 65 1014.6
20260906152040 25 0 0.0 4.8 0.00 0.48 0.03 67 1014.6
20260906151556 25 17 1.6 6.4 0.00 0.48 0.03 66 1014.6
20260906151038 25 10 0.0 6.4 0.00 0.48 0.03 66 1014.6
20260906150537 25 76 1.6 6.4 0.00 0.48 0.03 68 1014.6
20260906150109 25 0 1.6 6.4 0.00 0.48 0.03 67 1014.6
20260906145534 25 0 1.6 9.7 0.00 0.48 0.03 69 1014.7
20260906145038 24 0 3.2 9.7 0.00 0.48 0.03 69 1014.7
20260906144600 24 0 0.0 0.0 0.00 0.48 0.03 70 1014.6
20260906144041 24 0 0.0 0.0 0.00 0.48 0.03 70 1014.6
20260906143535 24 0 0.0 3.2 0.00 0.48 0.03 73 1014.6
20260906143058 24 0 0.0 6.4 0.00 0.48 0.03 73 1014.5
20260906142535 24 0 0.0 6.4 0.00 0.48 0.03 73 1014.6
20260906142039 23 34 0.0 3.2 0.00 0.48 0.03 73 1014.6
20260906141600 23 0 0.0 0.0 0.00 0.48 0.03 72 1014.6
20260906141035 23 0 0.0 0.0 0.00 0.48 0.03 73 1014.6
20260906140537 23 0 0.0 0.0 0.00 0.48 0.03 75 1014.6
20260906140108 23 0 0.0 0.0 0.00 0.48 0.03 75 1014.6
20260906135535 23 0 0.0 1.6 0.00 0.48 0.03 75 1014.5
20260906135035 23 0 0.0 1.6 0.00 0.48 0.03 75 1014.5
20260906134615 23 0 0.0 3.2 0.00 0.48 0.03 75 1014.5
20260906134035 23 9 0.0 6.4 0.00 0.48 0.03 76 1014.6
20260906133537 23 0 1.6 6.4 0.00 0.48 0.03 77 1014.5
20260906133113 22 0 0.0 3.2 0.00 0.48 0.03 77 1014.6
20260906132542 22 0 0.0 3.2 0.00 0.48 0.03 78 1014.6
20260906132037 22 0 0.0 3.2 0.00 0.48 0.03 79 1014.4
20260906131558 22 48 0.0 3.2 0.00 0.48 0.03 80 1014.4
20260906131036 22 0 0.0 3.2 0.00 0.48 0.03 79 1014.5
20260906130538 22 0 0.0 4.8 0.00 0.48 0.03 79 1014.4
20260906130112 22 0 0.0 4.8 0.00 0.48 0.03 80 1014.4
20260906125539 22 349 0.0 3.2 0.00 0.48 0.03 80 1014.4
20260906125037 21 0 0.0 3.2 0.00 0.48 0.03 81 1014.3
20260906124608 21 88 0.0 4.8 0.00 0.48 0.03 82 1014.3
20260906124038 21 0 0.0 4.8 0.00 0.48 0.03 80 1014.4
20260906123537 21 0 0.0 3.2 0.00 0.48 0.03 81 1014.4
20260906123103 21 0 0.0 3.2 0.00 0.48 0.03 82 1014.3
20260906122538 21 0 0.0 0.0 0.00 0.48 0.03 83 1014.2
20260906122038 21 0 0.0 0.0 0.00 0.48 0.03 84 1014.2
20260906121620 21 0 0.0 0.0 0.00 0.48 0.03 85 1014.1
20260906121037 20 0 0.0 0.0 0.00 0.48 0.03 86 1014.1
20260906120537 20 0 0.0 0.0 0.00 0.48 0.03 87 1014.0
20260906115535 19 0 0.0 0.0 0.00 0.48 0.03 90 1014.0
20260906115035 19 0 0.0 0.0 0.00 0.48 0.03 91 1014.0
20260906114622 18 0 0.0 0.0 0.00 0.48 0.03 92 1013.9
20260906114039 18 0 0.0 0.0 0.00 0.48 0.03 93 1013.8
20260906113536 18 0 0.0 0.0 0.00 0.48 0.03 93 1013.7
20260906113104 18 0 0.0 0.0 0.00 0.48 0.03 93 1013.7
20260906112535 18 0 0.0 0.0 0.00 0.48 0.03 93 1013.6
20260906112038 18 0 0.0 0.0 0.00 0.48 0.03 93 1013.5
20260906111603 18 0 0.0 0.0 0.00 0.48 0.03 93 1013.5
20260906111035 18 0 0.0 0.0 0.00 0.48 0.03 93 1013.4
20260906110536 18 0 0.0 0.0 0.00 0.48 0.03 94 1013.3
20260906110058 18 0 0.0 0.0 0.00 0.48 0.03 94 1013.3
20260906105541 18 0 0.0 0.0 0.00 0.48 0.03 94 1013.2
20260906105039 18 0 0.0 0.0 0.00 0.48 0.03 94 1013.1
20260906104556 18 0 0.0 0.0 0.00 0.48 0.03 95 1013.1
20260906104038 18 0 0.0 0.0 0.00 0.48 0.03 95 1013.0
20260906103537 18 0 0.0 0.0 0.00 0.48 0.03 95 1013.0
20260906103102 18 0 0.0 1.6 0.00 0.48 0.03 95 1013.0
20260906102538 18 0 0.0 3.2 0.00 0.48 0.03 95 1012.9
20260906102041 18 0 0.0 3.2 0.00 0.48 0.03 95 1012.7
20260906101603 18 0 0.0 3.2 0.00 0.48 0.03 95 1012.5
20260906101039 18 0 0.0 3.2 0.00 0.48 0.03 96 1012.4
20260906100537 18 0 0.0 0.0 0.00 0.48 0.03 96 1012.5
20260906100058 18 0 0.0 0.0 0.00 0.48 0.03 96 1012.4
20260906095535 18 0 0.0 0.0 0.03 0.48 0.03 96 1012.5
20260906095038 18 0 0.0 0.0 0.03 0.48 0.03 96 1012.5
20260906094601 18 0 0.0 0.0 0.03 0.48 0.03 96 1012.5
20260906094038 18 0 0.0 0.0 0.03 0.48 0.03 96 1012.6
20260906093538 18 0 0.0 0.0 0.03 0.48 0.03 96 1012.7
20260906093108 19 0 0.0 0.0 0.03 0.48 0.03 96 1012.5
20260906092538 19 0 0.0 0.0 0.03 0.48 0.03 96 1012.4
20260906092036 19 0 0.0 0.0 0.03 0.48 0.03 96 1012.4
20260906091604 19 0 0.0 0.0 0.03 0.48 0.03 96 1012.2
20260906091038 19 0 0.0 0.0 0.03 0.48 0.03 96 1012.1
20260906090538 19 0 0.0 0.0 0.03 0.48 0.03 96 1012.0
20260906090112 19 0 0.0 0.0 0.03 0.48 0.03 96 1012.0
20260906085538 19 0 0.0 0.0 0.00 0.46 0.00 96 1012.0
20260906085037 19 0 0.0 0.0 0.00 0.46 0.00 96 1011.9
20260906084601 20 0 0.0 0.0 0.00 0.46 0.00 96 1011.9
20260906084035 20 0 0.0 0.0 0.00 0.46 0.00 96 1011.9
20260906083538 20 0 0.0 0.0 0.00 0.46 0.00 96 1011.8
20260906083102 20 0 0.0 0.0 0.00 0.46 0.00 96 1011.9
20260906082538 20 0 0.0 0.0 0.00 0.46 0.00 96 1011.8
20260906082038 20 0 0.0 0.0 0.00 0.46 0.00 96 1011.7
20260906081601 20 0 0.0 0.0 0.00 0.46 0.00 96 1011.7
20260906081035 20 0 0.0 0.0 0.00 0.46 0.00 96 1011.6
20260906080536 20 0 0.0 0.0 0.00 0.46 0.00 96 1011.5
20260906080106 20 0 0.0 0.0 0.00 0.46 0.00 97 1011.5
20260906075535 20 0 0.0 0.0 0.00 0.46 0.00 97 1011.4
20260906075036 20 0 0.0 0.0 0.00 0.46 0.00 96 1011.4
20260906074601 20 0 0.0 0.0 0.00 0.46 0.00 96 1011.4
20260906074038 20 0 0.0 0.0 0.00 0.46 0.00 96 1011.5
20260906073537 20 0 0.0 0.0 0.00 0.46 0.00 96 1011.5
20260906073101 20 0 0.0 0.0 0.00 0.46 0.00 96 1011.5
20260906072536 20 0 0.0 0.0 0.00 0.46 0.00 96 1011.4
20260906072035 20 0 0.0 0.0 0.00 0.46 0.00 97 1011.4
20260906071611 20 0 0.0 0.0 0.00 0.46 0.00 97 1011.4
20260906071035 20 0 0.0 0.0 0.00 0.46 0.00 97 1011.4
20260906070534 20 0 0.0 0.0 0.00 0.46 0.00 97 1011.5
20260906070109 20 0 0.0 0.0 0.00 0.46 0.00 97 1011.4
20260906065541 20 0 0.0 0.0 0.00 0.46 0.00 96 1011.5
20260906065037 21 0 0.0 0.0 0.00 0.46 0.00 96 1011.6
20260906064603 21 0 0.0 0.0 0.00 0.46 0.00 96 1011.5
20260906064038 21 0 0.0 0.0 0.00 0.46 0.00 97 1011.5
20260906063540 21 0 0.0 0.0 0.00 0.46 0.00 96 1011.6
20260906063102 21 0 0.0 0.0 0.00 0.46 0.00 96 1011.5
20260906062538 21 0 0.0 0.0 0.00 0.46 0.00 96 1011.6
20260906062041 21 0 0.0 0.0 0.00 0.46 0.00 96 1011.6
20260906061605 21 0 0.0 0.0 0.00 0.46 0.00 96 1011.5
20260906061035 21 0 0.0 0.0 0.00 0.46 0.00 96 1011.5
20260906060535 21 0 0.0 0.0 0.00 0.46 0.00 96 1011.4
20260906060149 21 0 0.0 0.0 0.00 0.46 0.00 97 1011.4
20260906055538 21 0 0.0 0.0 0.00 0.46 0.00 97 1011.4
20260906055038 21 0 0.0 0.0 0.00 0.46 0.00 97 1011.4
20260906054616 21 0 0.0 0.0 0.00 0.46 0.00 97 1011.5
20260906054037 21 0 0.0 0.0 0.00 0.46 0.00 96 1011.5
20260906053540 21 0 0.0 0.0 0.00 0.46 0.00 96 1011.6
20260906053102 21 0 0.0 0.0 0.00 0.46 0.00 96 1011.7
20260906052536 21 0 0.0 0.0 0.00 0.46 0.00 96 1011.8
20260906052037 21 0 0.0 0.0 0.00 0.46 0.00 96 1011.9
20260906051559 21 0 0.0 0.0 0.00 0.46 0.00 96 1011.8
20260906051036 21 0 0.0 0.0 0.00 0.46 0.00 96 1011.9
20260906050535 21 0 0.0 0.0 0.00 0.46 0.00 96 1011.8
20260906050113 21 0 0.0 0.0 0.00 0.46 0.00 96 1011.7
20260906045535 21 0 0.0 0.0 0.00 0.46 0.00 96 1011.7
20260906045038 21 0 0.0 0.0 0.00 0.46 0.00 96 1011.7
20260906044602 21 0 0.0 0.0 0.00 0.46 0.00 96 1011.8
20260906044040 21 0 0.0 0.0 0.00 0.46 0.00 96 1011.9
20260906043539 21 0 0.0 0.0 0.00 0.46 0.00 96 1011.9
20260906043109 21 0 0.0 0.0 0.00 0.46 0.00 96 1011.9
20260906042536 21 0 0.0 0.0 0.00 0.46 0.00 96 1012.0
20260906042035 21 0 0.0 0.0 0.00 0.46 0.00 96 1012.0
20260906041559 21 0 0.0 0.0 0.00 0.46 0.00 96 1011.9
20260906041036 21 0 0.0 0.0 0.00 0.46 0.00 96 1012.0
20260906040538 21 0 0.0 0.0 0.00 0.46 0.00 96 1011.9
20260906040111 21 0 0.0 0.0 0.00 0.46 0.00 96 1011.9
20260906035616 22 0 0.0 0.0 0.00 0.46 0.46 96 1012.0
20260906035038 22 0 0.0 0.0 0.00 0.46 0.46 96 1012.0
20260906034607 22 0 0.0 0.0 0.00 0.46 0.46 96 1012.1
20260906034035 22 0 0.0 0.0 0.00 0.46 0.46 96 1012.1
20260906033535 22 0 0.0 0.0 0.00 0.46 0.46 96 1012.0
20260906033059 22 0 0.0 0.0 0.00 0.46 0.46 96 1012.0
20260906032535 22 0 0.0 0.0 0.00 0.46 0.46 96 1012.0
20260906032035 22 0 0.0 0.0 0.00 0.46 0.46 96 1012.0
20260906031620 22 0 0.0 0.0 0.00 0.46 0.46 96 1011.9
20260906031035 22 0 0.0 0.0 0.00 0.46 0.46 96 1011.9
20260906030537 22 0 0.0 3.2 0.00 0.46 0.46 96 1012.0
20260906030109 22 0 0.0 4.8 0.00 0.46 0.46 96 1012.1
20260906025538 22 0 1.6 4.8 0.00 0.46 0.46 96 1012.0
20260906025036 22 57 0.0 0.0 0.00 0.46 0.46 96 1011.8
20260906024605 22 0 0.0 0.0 0.00 0.46 0.46 96 1011.6
20260906024036 22 0 0.0 0.0 0.00 0.46 0.46 96 1011.8
20260906023538 22 0 0.0 0.0 0.00 0.46 0.46 95 1011.8
20260906023110 22 0 0.0 0.0 0.00 0.46 0.46 96 1011.8
20260906022539 22 0 0.0 0.0 0.00 0.46 0.46 95 1011.9
20260906022035 22 0 0.0 0.0 0.00 0.46 0.46 95 1011.7
20260906021557 22 0 0.0 0.0 0.00 0.46 0.46 95 1011.8
20260906021040 22 0 0.0 0.0 0.00 0.46 0.46 95 1011.7
20260906020538 22 0 0.0 0.0 0.00 0.46 0.46 95 1011.6
20260906020109 22 0 0.0 0.0 0.00 0.46 0.46 95 1011.6
20260906015539 22 0 0.0 0.0 0.00 0.46 0.46 95 1011.5
20260906015035 22 0 0.0 0.0 0.00 0.46 0.46 95 1011.5
20260906014600 22 0 0.0 0.0 0.00 0.46 0.46 95 1011.5
20260906014036 22 0 0.0 0.0 0.00 0.46 0.46 95 1011.5
20260906013537 22 0 0.0 0.0 0.00 0.46 0.46 95 1011.4
20260906013059 22 0 0.0 0.0 0.00 0.46 0.46 95 1011.4
20260906012537 22 0 0.0 0.0 0.00 0.46 0.46 95 1011.3
20260906012039 22 0 0.0 0.0 0.00 0.46 0.46 95 1011.1
20260906011607 22 0 0.0 0.0 0.00 0.46 0.46 95 1011.0
20260906011038 22 0 0.0 0.0 0.00 0.46 0.46 95 1010.9
20260906010537 22 0 0.0 0.0 0.00 0.46 0.46 94 1010.9
20260906010104 23 0 0.0 0.0 0.00 0.46 0.46 94 1010.8
20260906005537 23 0 0.0 0.0 0.00 0.46 0.46 94 1010.8
20260906005038 23 0 0.0 0.0 0.00 0.46 0.46 94 1010.8
20260906004608 23 0 0.0 0.0 0.00 0.46 0.46 94 1010.8
20260906004038 23 0 0.0 0.0 0.00 0.46 0.46 94 1010.8
20260906003538 23 0 0.0 0.0 0.00 0.46 0.46 94 1010.7
20260906003101 23 0 0.0 0.0 0.00 0.46 0.46 94 1010.6
20260906002538 23 0 0.0 0.0 0.00 0.46 0.46 94 1010.6
20260906002038 23 0 0.0 0.0 0.00 0.46 0.46 94 1010.5
20260906001559 23 0 0.0 0.0 0.00 0.46 0.46 94 1010.4
20260906001034 23 0 0.0 0.0 0.00 0.46 0.46 94 1010.4
20260906000537 23 0 0.0 0.0 0.00 0.46 0.46 93 1010.4
20260906000110 23 0 0.0 0.0 0.00 0.46 0.46 93 1010.3
20260905235541 23 0 0.0 0.0 0.00 0.46 0.46 92 1010.4
20260905235034 23 0 0.0 0.0 0.00 0.46 0.46 92 1010.4
20260905234601 23 0 0.0 0.0 0.00 0.46 0.46 92 1010.4
20260905234039 23 0 0.0 0.0 0.00 0.46 0.46 92 1010.4
20260905233538 23 0 0.0 0.0 0.00 0.46 0.46 92 1010.5
20260905233103 24 0 0.0 0.0 0.00 0.46 0.46 91 1010.5
20260905232537 24 0 0.0 0.0 0.00 0.46 0.46 91 1010.6
20260905232037 24 0 0.0 0.0 0.00 0.46 0.46 91 1010.4
20260905231618 24 0 0.0 0.0 0.00 0.46 0.46 90 1010.4
20260905231040 25 0 0.0 0.0 0.00 0.46 0.46 89 1010.4
20260905230538 25 0 0.0 0.0 0.00 0.46 0.46 88 1010.4
20260905230107 25 0 0.0 0.0 0.00 0.46 0.46 87 1010.2
20260905225536 25 0 0.0 0.0 0.00 0.46 0.46 87 1010.2
20260905225037 25 0 0.0 0.0 0.00 0.46 0.46 86 1010.2
20260905224602 25 0 0.0 0.0 0.00 0.46 0.46 86 1010.4
20260905224041 26 0 0.0 0.0 0.00 0.46 0.46 84 1010.3
20260905223536 26 0 0.0 0.0 0.00 0.46 0.46 82 1010.3
20260905223102 26 0 0.0 0.0 0.00 0.46 0.46 82 1010.3